Location: Unspecified
(40.7945°N, 111.1337°W)
Time: 01:11:14
(UTC-06:00)

Vanguard 1 - Pass Details

Date: 27 June 2019
Orbit: 653 x 3830 km, 34.3° (Epoch: 17 July)

Event Time Altitude Azimuth Distance (km) Brightness Sun altitude
Rises 08:09:58 0° 280° (W) 6,297 13.6 22.7°
Reaches altitude 10° 08:15:19 10° 272° (W) 4,717 13.1 23.7°
Maximum altitude 08:25:12 32° 216° (SW) 2,276 11.8 25.6°
Drops below altitude 10° 08:31:16 10° 155° (SSE) 2,840 12.7 26.7°
Sets 08:33:41 0° 144° (SE) 3,534 13.3 27.1°
